| time (UTC) | temp C | wind direction | speed KPH | gust KPH | rain 1hr cm | rain 24hr cm | rain mn cm | humidity % | barometer mb |
| 20260508085339 | 15 | 308 | 4.8 | 22.5 | 0.00 | 0.97 | 0.76 | 88 | 1006.4 |
| 20260508085101 | 15 | 354 | 6.4 | 20.9 | 0.00 | 0.97 | 0.76 | 89 | 1006.2 |
| 20260508084332 | 15 | 317 | 9.7 | 22.5 | 0.00 | 0.97 | 0.76 | 90 | 1006.1 |
| 20260508083822 | 15 | 293 | 6.4 | 22.5 | 0.00 | 0.97 | 0.76 | 92 | 1006.0 |
| 20260508083321 | 15 | 251 | 4.8 | 16.1 | 0.00 | 0.97 | 0.76 | 94 | 1005.8 |
| 20260508082821 | 15 | 350 | 4.8 | 11.3 | 0.00 | 0.97 | 0.76 | 95 | 1005.6 |
| 20260508082320 | 15 | 12 | 4.8 | 14.5 | 0.00 | 0.97 | 0.76 | 95 | 1005.5 |
| 20260508081812 | 15 | 321 | 1.6 | 14.5 | 0.00 | 0.97 | 0.76 | 96 | 1005.6 |
| 20260508081258 | 15 | 148 | 0.0 | 3.2 | 0.00 | 0.97 | 0.76 | 96 | 1005.5 |
| 20260508080743 | 15 | 36 | 0.0 | 3.2 | 0.00 | 0.97 | 0.76 | 96 | 1005.4 |
| 20260508080244 | 15 | 251 | 0.0 | 3.2 | 0.00 | 0.97 | 0.76 | 96 | 1005.5 |
| 20260508075744 | 15 | 251 | 0.0 | 3.2 | 0.00 | 0.97 | 0.76 | 96 | 1005.5 |
| 20260508075243 | 15 | 252 | 0.0 | 3.2 | 0.00 | 0.97 | 0.76 | 96 | 1005.3 |
| 20260508075006 | 15 | 252 | 0.0 | 3.2 | 0.00 | 0.97 | 0.76 | 96 | 1005.1 |
| 20260508074235 | 15 | 252 | 0.0 | 3.2 | 0.00 | 0.97 | 0.76 | 96 | 1004.8 |
| 20260508073733 | 15 | 241 | 0.0 | 1.6 | 0.00 | 0.97 | 0.76 | 96 | 1004.9 |
| 20260508073231 | 15 | 241 | 0.0 | 3.2 | 0.00 | 0.97 | 0.76 | 96 | 1004.7 |
| 20260508073003 | 15 | 241 | 1.6 | 4.8 | 0.00 | 0.97 | 0.76 | 96 | 1004.6 |
| 20260508072505 | 15 | 252 | 1.6 | 4.8 | 0.03 | 0.97 | 0.76 | 95 | 1004.5 |
| 20260508071729 | 15 | 58 | 3.2 | 4.8 | 0.05 | 0.97 | 0.76 | 95 | 1004.2 |
| 20260508071231 | 15 | 74 | 3.2 | 9.7 | 0.08 | 0.97 | 0.76 | 95 | 1004.1 |
| 20260508070713 | 14 | 88 | 1.6 | 9.7 | 0.10 | 0.97 | 0.76 | 95 | 1004.4 |
| 20260508070212 | 15 | 45 | 1.6 | 4.8 | 0.15 | 0.97 | 0.76 | 95 | 1004.4 |
| 20260508065707 | 15 | 40 | 1.6 | 4.8 | 0.18 | 0.97 | 0.76 | 95 | 1004.4 |
| 20260508065157 | 14 | 55 | 1.6 | 4.8 | 0.18 | 0.97 | 0.76 | 94 | 1004.4 |
| 20260508064659 | 15 | 87 | 0.0 | 4.8 | 0.20 | 0.97 | 0.76 | 94 | 1004.3 |
| 20260508064130 | 15 | 68 | 1.6 | 4.8 | 0.25 | 0.97 | 0.76 | 94 | 1004.5 |
| 20260508063850 | 15 | 29 | 1.6 | 4.8 | 0.28 | 0.97 | 0.76 | 94 | 1004.7 |
| 20260508063338 | 15 | 31 | 1.6 | 4.8 | 0.36 | 0.97 | 0.76 | 94 | 1005.1 |
| 20260508062558 | 15 | 43 | 1.6 | 8.0 | 0.46 | 0.97 | 0.76 | 94 | 1005.0 |
| 20260508062049 | 15 | 61 | 3.2 | 17.7 | 0.43 | 0.94 | 0.74 | 93 | 1004.8 |
| 20260508061547 | 15 | 40 | 3.2 | 17.7 | 0.41 | 0.91 | 0.71 | 93 | 1005.4 |
| 20260508061047 | 15 | 295 | 8.0 | 19.3 | 0.38 | 0.89 | 0.69 | 93 | 1005.3 |
| 20260508060545 | 15 | 289 | 9.7 | 24.1 | 0.36 | 0.86 | 0.66 | 92 | 1005.3 |
| 20260508060043 | 15 | 267 | 9.7 | 24.1 | 0.30 | 0.81 | 0.61 | 91 | 1005.2 |
| 20260508055544 | 15 | 261 | 9.7 | 29.0 | 0.28 | 0.79 | 0.58 | 90 | 1005.1 |
| 20260508055039 | 16 | 259 | 11.3 | 25.7 | 0.28 | 0.79 | 0.58 | 89 | 1004.6 |
| 20260508054526 | 16 | 251 | 9.7 | 22.5 | 0.23 | 0.74 | 0.53 | 88 | 1005.0 |
| 20260508054017 | 17 | 268 | 9.7 | 20.9 | 0.18 | 0.69 | 0.51 | 88 | 1004.8 |
| 20260508053454 | 18 | 270 | 8.0 | 32.2 | 0.15 | 0.66 | 0.46 | 89 | 1004.4 |
| 20260508052954 | 19 | 262 | 4.8 | 32.2 | 0.08 | 0.58 | 0.38 | 93 | 1004.9 |
| 20260508052455 | 20 | 206 | 3.2 | 9.7 | 0.03 | 0.51 | 0.30 | 93 | 1004.2 |
| 20260508051955 | 20 | 291 | 3.2 | 9.7 | 0.28 | 0.51 | 0.30 | 93 | 1004.0 |
| 20260508051446 | 20 | 245 | 1.6 | 4.8 | 0.28 | 0.51 | 0.30 | 92 | 1003.4 |
| 20260508050940 | 20 | 233 | 1.6 | 6.4 | 0.28 | 0.51 | 0.30 | 92 | 1003.5 |
| 20260508050652 | 20 | 216 | 1.6 | 6.4 | 0.28 | 0.51 | 0.30 | 91 | 1003.6 |
| 20260508045919 | 20 | 263 | 3.2 | 6.4 | 0.28 | 0.51 | 0.30 | 91 | 1003.4 |
| 20260508045410 | 20 | 266 | 3.2 | 6.4 | 0.28 | 0.51 | 0.30 | 90 | 1003.1 |
| 20260508044911 | 20 | 233 | 1.6 | 6.4 | 0.28 | 0.51 | 0.30 | 89 | 1002.8 |
| 20260508044410 | 20 | 260 | 1.6 | 12.9 | 0.28 | 0.51 | 0.30 | 88 | 1002.8 |
| 20260508043857 | 21 | 335 | 3.2 | 12.9 | 0.28 | 0.51 | 0.30 | 88 | 1002.8 |
| 20260508043332 | 21 | 322 | 6.4 | 17.7 | 0.28 | 0.51 | 0.30 | 86 | 1002.5 |
| 20260508042827 | 21 | 332 | 6.4 | 17.7 | 0.28 | 0.51 | 0.30 | 85 | 1002.5 |
| 20260508042315 | 21 | 346 | 6.4 | 16.1 | 0.25 | 0.46 | 0.28 | 84 | 1002.4 |
| 20260508041811 | 21 | 328 | 8.0 | 16.1 | 0.03 | 0.23 | 0.03 | 81 | 1002.5 |
| 20260508041311 | 21 | 312 | 8.0 | 16.1 | 0.03 | 0.23 | 0.03 | 81 | 1002.2 |
| 20260508040801 | 21 | 345 | 8.0 | 17.7 | 0.03 | 0.23 | 0.03 | 82 | 1001.9 |
| 20260508040257 | 21 | 307 | 6.4 | 17.7 | 0.03 | 0.23 | 0.03 | 82 | 1001.7 |
| 20260508035757 | 21 | 332 | 6.4 | 16.1 | 0.03 | 0.23 | 0.03 | 83 | 1001.7 |
| 20260508035255 | 21 | 316 | 4.8 | 16.1 | 0.03 | 0.23 | 0.03 | 83 | 1001.7 |
| 20260508034743 | 21 | 348 | 3.2 | 11.3 | 0.03 | 0.23 | 0.03 | 83 | 1001.8 |
| 20260508034216 | 21 | 352 | 4.8 | 11.3 | 0.03 | 0.23 | 0.03 | 84 | 1001.9 |
| 20260508033936 | 21 | 274 | 6.4 | 14.5 | 0.03 | 0.23 | 0.03 | 84 | 1002.2 |
| 20260508033436 | 21 | 0 | 6.4 | 14.5 | 0.03 | 0.23 | 0.03 | 83 | 1002.3 |
| 20260508032704 | 21 | 22 | 8.0 | 24.1 | 0.03 | 0.23 | 0.03 | 83 | 1002.5 |
| 20260508032202 | 21 | 14 | 9.7 | 24.1 | 0.00 | 0.20 | 0.00 | 83 | 1002.8 |
| 20260508031702 | 21 | 351 | 9.7 | 29.0 | 0.03 | 0.20 | 0.00 | 83 | 1002.8 |
| 20260508031433 | 20 | 353 | 8.0 | 29.0 | 0.03 | 0.20 | 0.00 | 83 | 1002.9 |
| 20260508030937 | 20 | 345 | 6.4 | 19.3 | 0.05 | 0.20 | 0.00 | 85 | 1003.0 |
| 20260508030205 | 20 | 41 | 8.0 | 20.9 | 0.08 | 0.20 | 0.00 | 84 | 1003.0 |
| 20260508025932 | 20 | 353 | 8.0 | 20.9 | 0.20 | 0.20 | 0.20 | 84 | 1002.9 |
| 20260508025413 | 20 | 347 | 6.4 | 17.7 | 0.20 | 0.20 | 0.20 | 85 | 1003.0 |
| 20260508024605 | 20 | 37 | 6.4 | 12.9 | 0.20 | 0.20 | 0.20 | 85 | 1003.0 |
| 20260508024335 | 20 | 339 | 6.4 | 19.3 | 0.20 | 0.20 | 0.20 | 85 | 1003.0 |
| 20260508023558 | 20 | 14 | 6.4 | 19.3 | 0.20 | 0.20 | 0.20 | 85 | 1003.2 |
| 20260508023045 | 20 | 8 | 6.4 | 14.5 | 0.20 | 0.20 | 0.20 | 85 | 1003.4 |
| 20260508022759 | 21 | 31 | 6.4 | 25.7 | 0.20 | 0.20 | 0.20 | 84 | 1003.5 |
| 20260508022029 | 21 | 345 | 9.7 | 25.7 | 0.20 | 0.20 | 0.20 | 83 | 1003.4 |
| 20260508021527 | 21 | 20 | 9.7 | 33.8 | 0.18 | 0.18 | 0.18 | 81 | 1003.6 |
| 20260508021027 | 22 | 322 | 9.7 | 38.6 | 0.15 | 0.15 | 0.15 | 79 | 1003.9 |
| 20260508020738 | 23 | 1 | 16.1 | 38.6 | 0.15 | 0.15 | 0.15 | 76 | 1004.0 |
| 20260508020004 | 24 | 253 | 20.9 | 48.3 | 0.08 | 0.08 | 0.08 | 71 | 1004.1 |
| 20260508015501 | 27 | 245 | 17.7 | 48.3 | 0.00 | 0.00 | 0.00 | 59 | 1004.2 |
| 20260508015203 | 28 | 275 | 14.5 | 33.8 | 0.00 | 0.00 | 0.00 | 54 | 1003.8 |
| 20260508014428 | 28 | 35 | 14.5 | 41.8 | 0.00 | 0.00 | 0.00 | 55 | 1001.7 |
| 20260508013929 | 28 | 359 | 16.1 | 41.8 | 0.00 | 0.00 | 0.00 | 55 | 1000.8 |
| 20260508013357 | 28 | 346 | 14.5 | 33.8 | 0.00 | 0.00 | 0.00 | 55 | 1000.4 |
| 20260508012852 | 28 | 356 | 12.9 | 33.8 | 0.00 | 0.00 | 0.00 | 55 | 1000.1 |
| 20260508012349 | 28 | 343 | 16.1 | 35.4 | 0.00 | 0.00 | 0.00 | 55 | 1000.1 |
| 20260508012053 | 29 | 10 | 16.1 | 35.4 | 0.00 | 0.00 | 0.00 | 54 | 1000.2 |
| 20260508011545 | 29 | 6 | 14.5 | 30.6 | 0.00 | 0.00 | 0.00 | 54 | 1000.2 |
| 20260508010810 | 29 | 338 | 14.5 | 30.6 | 0.00 | 0.00 | 0.00 | 54 | 1000.2 |
| 20260508010306 | 29 | 19 | 14.5 | 30.6 | 0.00 | 0.00 | 0.00 | 54 | 1000.2 |
| 20260508005737 | 29 | 332 | 16.1 | 32.2 | 0.00 | 0.00 | 0.00 | 54 | 1000.1 |
| 20260508005236 | 29 | 341 | 14.5 | 32.2 | 0.00 | 0.00 | 0.00 | 54 | 1000.1 |
| 20260508004956 | 28 | 337 | 14.5 | 30.6 | 0.00 | 0.00 | 0.00 | 54 | 1000.1 |
| 20260508004459 | 28 | 4 | 12.9 | 30.6 | 0.00 | 0.00 | 0.00 | 54 | 999.9 |
| 20260508003645 | 28 | 334 | 12.9 | 30.6 | 0.00 | 0.00 | 0.00 | 54 | 999.8 |
| 20260508003142 | 29 | 6 | 16.1 | 46.7 | 0.00 | 0.00 | 0.00 | 54 | 999.8 |
| 20260508002845 | 29 | 24 | 16.1 | 46.7 | 0.00 | 0.00 | 0.00 | 53 | 999.9 |
| 20260508002107 | 29 | 355 | 14.5 | 35.4 | 0.00 | 0.00 | 0.00 | 54 | 999.7 |
| 20260508001605 | 29 | 341 | 16.1 | 32.2 | 0.00 | 0.00 | 0.00 | 53 | 999.7 |
| 20260508001323 | 29 | 45 | 17.7 | 32.2 | 0.00 | 0.00 | 0.00 | 53 | 999.8 |
| 20260508000554 | 29 | 356 | 17.7 | 37.0 | 0.00 | 0.00 | 0.00 | 53 | 999.7 |
| 20260508000026 | 29 | 344 | 16.1 | 35.4 | 0.00 | 0.00 | 0.00 | 53 | 1000.0 |
| 20260507235523 | 29 | 12 | 17.7 | 37.0 | 0.00 | 0.00 | 0.00 | 52 | 999.9 |
| 20260507235013 | 29 | 326 | 19.3 | 37.0 | 0.00 | 0.00 | 0.00 | 52 | 999.9 |
| 20260507234716 | 29 | 339 | 14.5 | 35.4 | 0.00 | 0.00 | 0.00 | 53 | 999.6 |
| 20260507233944 | 29 | 16 | 11.3 | 25.7 | 0.00 | 0.00 | 0.00 | 53 | 999.7 |
| 20260507233425 | 29 | 19 | 11.3 | 24.1 | 0.00 | 0.00 | 0.00 | 53 | 999.7 |
| 20260507232923 | 29 | 333 | 11.3 | 24.1 | 0.00 | 0.00 | 0.00 | 54 | 999.8 |
| 20260507232430 | 29 | 0 | 12.9 | 33.8 | 0.00 | 0.00 | 0.00 | 54 | 999.7 |
| 20260507232423 | 29 | 30 | 11.3 | 24.1 | 0.00 | 0.00 | 0.00 | 54 | 999.8 |
| 20260507231426 | 28 | 308 | 11.3 | 33.8 | 0.00 | 0.00 | 0.00 | 54 | 999.7 |
| 20260507230906 | 28 | 334 | 8.0 | 22.5 | 0.00 | 0.00 | 0.00 | 56 | 999.9 |
| 20260507230405 | 28 | 318 | 4.8 | 22.5 | 0.00 | 0.00 | 0.00 | 56 | 999.8 |
| 20260507225907 | 28 | 336 | 4.8 | 19.3 | 0.00 | 0.00 | 0.00 | 56 | 999.8 |
| 20260507225342 | 28 | 328 | 6.4 | 19.3 | 0.00 | 0.00 | 0.00 | 56 | 999.8 |
| 20260507224837 | 28 | 308 | 3.2 | 14.5 | 0.00 | 0.00 | 0.00 | 57 | 999.9 |
| 20260507224537 | 28 | 2 | 3.2 | 11.3 | 0.00 | 0.00 | 0.00 | 56 | 999.9 |
| 20260507223801 | 28 | 55 | 6.4 | 19.3 | 0.00 | 0.00 | 0.00 | 56 | 1000.0 |
| 20260507223258 | 28 | 16 | 6.4 | 19.3 | 0.00 | 0.00 | 0.00 | 56 | 1000.0 |
| 20260507222751 | 28 | 0 | 4.8 | 24.1 | 0.00 | 0.00 | 0.00 | 56 | 1000.0 |
| 20260507222243 | 28 | 348 | 4.8 | 24.1 | 0.00 | 0.00 | 0.00 | 56 | 1000.2 |
| 20260507221715 | 28 | 116 | 6.4 | 16.1 | 0.00 | 0.00 | 0.00 | 57 | 1000.3 |
| 20260507221212 | 28 | 308 | 6.4 | 16.1 | 0.00 | 0.00 | 0.00 | 56 | 1000.2 |
| 20260507220645 | 28 | 332 | 6.4 | 16.1 | 0.00 | 0.00 | 0.00 | 56 | 1000.4 |
| 20260507220143 | 28 | 72 | 3.2 | 11.3 | 0.00 | 0.00 | 0.00 | 56 | 1000.4 |
| 20260507215914 | 28 | 1 | 3.2 | 12.9 | 0.00 | 0.00 | 0.00 | 56 | 1000.4 |
| 20260507215141 | 28 | 354 | 4.8 | 12.9 | 0.00 | 0.00 | 0.00 | 56 | 1000.5 |
| 20260507214641 | 28 | 14 | 4.8 | 16.1 | 0.00 | 0.00 | 0.00 | 56 | 1000.7 |
| 20260507214139 | 28 | 35 | 4.8 | 16.1 | 0.00 | 0.00 | 0.00 | 55 | 1000.5 |
| 20260507213611 | 29 | 355 | 6.4 | 16.1 | 0.00 | 0.00 | 0.00 | 55 | 1000.6 |
| 20260507213338 | 29 | 65 | 6.4 | 14.5 | 0.00 | 0.00 | 0.00 | 55 | 1000.5 |
| 20260507212551 | 29 | 341 | 6.4 | 19.3 | 0.00 | 0.00 | 0.00 | 54 | 1000.6 |
| 20260507212050 | 29 | 35 | 4.8 | 19.3 | 0.00 | 0.00 | 0.00 | 54 | 1000.8 |
| 20260507211550 | 29 | 19 | 3.2 | 9.7 | 0.00 | 0.00 | 0.00 | 54 | 1000.8 |
| 20260507211025 | 30 | 20 | 3.2 | 9.7 | 0.00 | 0.00 | 0.00 | 54 | 1000.8 |
| 20260507210458 | 30 | 12 | 6.4 | 19.3 | 0.00 | 0.00 | 0.00 | 54 | 1000.8 |
| 20260507205949 | 30 | 330 | 6.4 | 19.3 | 0.00 | 0.00 | 0.00 | 52 | 1000.8 |
| 20260507205447 | 30 | 347 | 6.4 | 24.1 | 0.00 | 0.00 | 0.00 | 52 | 1000.7 |
| 20260507204935 | 30 | 20 | 8.0 | 24.1 | 0.00 | 0.00 | 0.00 | 52 | 1000.8 |
| 20260507204436 | 30 | 0 | 8.0 | 19.3 | 0.00 | 0.00 | 0.00 | 52 | 1000.8 |
| 20260507204140 | 30 | 11 | 8.0 | 22.5 | 0.00 | 0.00 | 0.00 | 51 | 1000.8 |
| 20260507203614 | 30 | 43 | 8.0 | 22.5 | 0.00 | 0.00 | 0.00 | 51 | 1000.7 |
| 20260507202840 | 30 | 285 | 8.0 | 22.5 | 0.00 | 0.00 | 0.00 | 51 | 1000.7 |
| 20260507202549 | 30 | 44 | 8.0 | 19.3 | 0.00 | 0.00 | 0.00 | 50 | 1000.6 |
| 20260507201750 | 31 | 0 | 11.3 | 30.6 | 0.00 | 0.00 | 0.00 | 50 | 1000.6 |
| 20260507201518 | 31 | 27 | 11.3 | 30.6 | 0.00 | 0.00 | 0.00 | 51 | 1000.7 |
| 20260507200737 | 31 | 314 | 9.7 | 20.9 | 0.00 | 0.00 | 0.00 | 50 | 1000.5 |
| 20260507200448 | 31 | 321 | 12.9 | 37.0 | 0.00 | 0.00 | 0.00 | 50 | 1000.5 |
| 20260507200209 | 31 | 4 | 9.7 | 17.7 | 0.00 | 0.00 | 0.00 | 50 | 1000.5 |
| 20260507195157 | 31 | 12 | 12.9 | 37.0 | 0.00 | 0.00 | 0.00 | 50 | 1000.3 |
| 20260507194646 | 31 | 337 | 9.7 | 25.7 | 0.00 | 0.00 | 0.00 | 51 | 1000.4 |
| 20260507194143 | 30 | 37 | 8.0 | 20.9 | 0.00 | 0.00 | 0.00 | 53 | 1000.4 |
| 20260507193624 | 30 | 95 | 4.8 | 17.7 | 0.00 | 0.00 | 0.00 | 55 | 1000.4 |
| 20260507193325 | 30 | 320 | 4.8 | 11.3 | 0.00 | 0.00 | 0.00 | 55 | 1000.3 |
| 20260507192526 | 30 | 330 | 4.8 | 14.5 | 0.00 | 0.00 | 0.00 | 54 | 1000.4 |
| 20260507192012 | 30 | 0 | 6.4 | 14.5 | 0.00 | 0.00 | 0.00 | 55 | 1000.4 |
| 20260507191512 | 30 | 322 | 6.4 | 19.3 | 0.00 | 0.00 | 0.00 | 53 | 1000.5 |
| 20260507191011 | 31 | 348 | 4.8 | 19.3 | 0.00 | 0.00 | 0.00 | 53 | 1000.6 |
| 20260507190510 | 31 | 27 | 3.2 | 11.3 | 0.00 | 0.00 | 0.00 | 55 | 1000.7 |
| 20260507190006 | 30 | 49 | 3.2 | 16.1 | 0.00 | 0.00 | 0.00 | 54 | 1000.6 |
| 20260507185438 | 30 | 344 | 3.2 | 16.1 | 0.00 | 0.00 | 0.00 | 55 | 1000.7 |
| 20260507184934 | 30 | 66 | 3.2 | 16.1 | 0.00 | 0.00 | 0.00 | 55 | 1000.8 |
| 20260507184431 | 30 | 14 | 3.2 | 16.1 | 0.00 | 0.00 | 0.00 | 53 | 1000.7 |
| 20260507183908 | 30 | 0 | 6.4 | 16.1 | 0.00 | 0.00 | 0.00 | 53 | 1000.9 |
| 20260507183404 | 30 | 15 | 6.4 | 16.1 | 0.00 | 0.00 | 0.00 | 53 | 1000.8 |
| 20260507182858 | 30 | 355 | 8.0 | 14.5 | 0.00 | 0.00 | 0.00 | 53 | 1000.8 |
| 20260507182351 | 30 | 8 | 8.0 | 17.7 | 0.00 | 0.00 | 0.00 | 52 | 1000.8 |
| 20260507181849 | 30 | 4 | 8.0 | 17.7 | 0.00 | 0.00 | 0.00 | 53 | 1000.9 |
| 20260507181554 | 30 | 24 | 8.0 | 16.1 | 0.00 | 0.00 | 0.00 | 52 | 1000.9 |
| 20260507180815 | 30 | 355 | 8.0 | 19.3 | 0.00 | 0.00 | 0.00 | 51 | 1000.8 |
| 20260507180311 | 30 | 6 | 8.0 | 22.5 | 0.00 | 0.00 | 0.00 | 53 | 1000.8 |
| 20260507175752 | 30 | 328 | 6.4 | 22.5 | 0.00 | 0.00 | 0.00 | 52 | 1000.8 |
| 20260507175242 | 31 | 3 | 8.0 | 22.5 | 0.00 | 0.00 | 0.00 | 53 | 1000.8 |
| 20260507174730 | 31 | 20 | 9.7 | 22.5 | 0.00 | 0.00 | 0.00 | 53 | 1000.9 |
| 20260507174211 | 31 | 18 | 9.7 | 19.3 | 0.00 | 0.00 | 0.00 | 53 | 1000.9 |
| 20260507173653 | 31 | 338 | 9.7 | 19.3 | 0.00 | 0.00 | 0.00 | 52 | 1000.9 |
| 20260507173127 | 31 | 351 | 8.0 | 19.3 | 0.00 | 0.00 | 0.00 | 52 | 1000.9 |
| 20260507172830 | 31 | 33 | 9.7 | 19.3 | 0.00 | 0.00 | 0.00 | 53 | 1001.1 |
| 20260507172053 | 31 | 20 | 9.7 | 17.7 | 0.00 | 0.00 | 0.00 | 53 | 1001.2 |
| 20260507171552 | 31 | 31 | 11.3 | 29.0 | 0.00 | 0.00 | 0.00 | 53 | 1001.3 |
| 20260507171322 | 31 | 2 | 11.3 | 29.0 | 0.00 | 0.00 | 0.00 | 52 | 1001.5 |
| 20260507170526 | 31 | 311 | 12.9 | 25.7 | 0.00 | 0.00 | 0.00 | 54 | 1001.4 |
| 20260507170022 | 31 | 355 | 14.5 | 38.6 | 0.00 | 0.00 | 0.00 | 52 | 1001.5 |
| 20260507165458 | 31 | 6 | 12.9 | 38.6 | 0.00 | 0.00 | 0.00 | 52 | 1001.6 |
| 20260507164935 | 31 | 6 | 11.3 | 25.7 | 0.00 | 0.00 | 0.00 | 52 | 1001.7 |
| 20260507164407 | 31 | 10 | 11.3 | 35.4 | 0.00 | 0.00 | 0.00 | 52 | 1001.8 |
| 20260507163906 | 32 | 10 | 12.9 | 35.4 | 0.00 | 0.00 | 0.00 | 50 | 1001.8 |
| 20260507163407 | 32 | 346 | 14.5 | 33.8 | 0.00 | 0.00 | 0.00 | 50 | 1001.7 |
| 20260507162840 | 32 | 357 | 16.1 | 33.8 | 0.00 | 0.00 | 0.00 | 50 | 1001.6 |
| 20260507162543 | 32 | 326 | 17.7 | 35.4 | 0.00 | 0.00 | 0.00 | 51 | 1001.7 |
| 20260507161748 | 32 | 0 | 17.7 | 35.4 | 0.00 | 0.00 | 0.00 | 52 | 1001.8 |
| 20260507161509 | 31 | 5 | 17.7 | 37.0 | 0.00 | 0.00 | 0.00 | 51 | 1002.0 |
| 20260507160739 | 31 | 6 | 17.7 | 37.0 | 0.00 | 0.00 | 0.00 | 52 | 1002.1 |
| 20260507160237 | 32 | 21 | 17.7 | 30.6 | 0.00 | 0.00 | 0.00 | 51 | 1001.9 |
| 20260507155716 | 32 | 20 | 16.1 | 35.4 | 0.00 | 0.00 | 0.00 | 52 | 1002.1 |
| 20260507155151 | 32 | 345 | 14.5 | 35.4 | 0.00 | 0.00 | 0.00 | 52 | 1002.1 |
| 20260507154630 | 32 | 4 | 14.5 | 30.6 | 0.00 | 0.00 | 0.00 | 56 | 1002.1 |
| 20260507154107 | 31 | 30 | 11.3 | 30.6 | 0.00 | 0.00 | 0.00 | 54 | 1002.4 |
| 20260507153604 | 31 | 275 | 12.9 | 24.1 | 0.00 | 0.00 | 0.00 | 55 | 1002.4 |
| 20260507153102 | 31 | 280 | 16.1 | 43.5 | 0.00 | 0.00 | 0.00 | 56 | 1002.4 |
| 20260507152541 | 31 | 347 | 16.1 | 43.5 | 0.00 | 0.00 | 0.00 | 55 | 1002.6 |
| 20260507152533 | 31 | 21 | 12.9 | 25.7 | 0.00 | 0.00 | 0.00 | 57 | 1002.9 |
| 20260507151531 | 31 | 10 | 12.9 | 25.7 | 0.00 | 0.00 | 0.00 | 57 | 1002.9 |
| 20260507151008 | 31 | 335 | 14.5 | 41.8 | 0.00 | 0.00 | 0.00 | 59 | 1002.9 |
| 20260507150439 | 31 | 338 | 11.3 | 41.8 | 0.00 | 0.00 | 0.00 | 56 | 1003.2 |
| 20260507145914 | 31 | 353 | 11.3 | 30.6 | 0.00 | 0.00 | 0.00 | 58 | 1003.2 |
| 20260507145344 | 30 | 6 | 12.9 | 33.8 | 0.00 | 0.00 | 0.00 | 60 | 1003.6 |
| 20260507144819 | 30 | 327 | 17.7 | 33.8 | 0.00 | 0.00 | 0.00 | 59 | 1003.7 |
| 20260507144318 | 30 | 353 | 14.5 | 29.0 | 0.00 | 0.00 | 0.00 | 58 | 1003.9 |
| 20260507143819 | 30 | 340 | 9.7 | 29.0 | 0.00 | 0.00 | 0.00 | 58 | 1004.0 |
| 20260507143318 | 30 | 5 | 9.7 | 22.5 | 0.00 | 0.00 | 0.00 | 61 | 1004.3 |
| 20260507142818 | 30 | 6 | 11.3 | 25.7 | 0.00 | 0.00 | 0.00 | 61 | 1004.3 |
| 20260507142253 | 30 | 64 | 12.9 | 27.4 | 0.00 | 0.00 | 0.00 | 60 | 1004.5 |
| 20260507141751 | 30 | 358 | 11.3 | 27.4 | 0.00 | 0.00 | 0.00 | 60 | 1004.7 |
| 20260507141241 | 30 | 314 | 9.7 | 19.3 | 0.00 | 0.00 | 0.00 | 60 | 1004.7 |
| 20260507140741 | 30 | 8 | 8.0 | 20.9 | 0.00 | 0.00 | 0.00 | 60 | 1005.1 |
| 20260507140444 | 30 | 349 | 6.4 | 20.9 | 0.00 | 0.00 | 0.00 | 62 | 1005.0 |
| 20260507135649 | 30 | 28 | 9.7 | 30.6 | 0.00 | 0.00 | 0.00 | 64 | 1005.4 |
| 20260507135122 | 29 | 31 | 9.7 | 30.6 | 0.00 | 0.00 | 0.00 | 61 | 1005.6 |
| 20260507134557 | 29 | 331 | 11.3 | 24.1 | 0.00 | 0.00 | 0.00 | 63 | 1005.7 |
| 20260507134052 | 29 | 308 | 9.7 | 24.1 | 0.00 | 0.00 | 0.00 | 62 | 1005.9 |
| 20260507133815 | 29 | 332 | 9.7 | 22.5 | 0.00 | 0.00 | 0.00 | 63 | 1006.0 |
| 20260507133017 | 28 | 36 | 9.7 | 22.5 | 0.00 | 0.00 | 0.00 | 64 | 1006.0 |
| 20260507132507 | 28 | 12 | 9.7 | 19.3 | 0.00 | 0.00 | 0.00 | 66 | 1006.1 |
| 20260507132006 | 28 | 29 | 8.0 | 19.3 | 0.00 | 0.00 | 0.00 | 65 | 1006.2 |
| 20260507131504 | 28 | 26 | 9.7 | 22.5 | 0.00 | 0.00 | 0.00 | 66 | 1006.3 |
| 20260507130939 | 28 | 357 | 8.0 | 22.5 | 0.00 | 0.00 | 0.00 | 66 | 1006.4 |
| 20260507130429 | 28 | 47 | 6.4 | 14.5 | 0.00 | 0.00 | 0.00 | 67 | 1006.6 |
| 20260507125910 | 27 | 305 | 6.4 | 12.9 | 0.00 | 0.00 | 0.00 | 69 | 1006.7 |
| 20260507125902 | 27 | 21 | 6.4 | 14.5 | 0.00 | 0.00 | 0.00 | 69 | 1006.7 |
| 20260507124836 | 27 | 33 | 6.4 | 17.7 | 0.00 | 0.00 | 0.00 | 69 | 1006.8 |
| 20260507124316 | 26 | 16 | 6.4 | 17.7 | 0.00 | 0.00 | 0.00 | 70 | 1006.9 |
| 20260507123817 | 26 | 0 | 6.4 | 20.9 | 0.00 | 0.00 | 0.00 | 69 | 1007.0 |
| 20260507123317 | 26 | 33 | 6.4 | 20.9 | 0.00 | 0.00 | 0.00 | 69 | 1007.1 |
| 20260507123048 | 26 | 7 | 4.8 | 9.7 | 0.00 | 0.00 | 0.00 | 69 | 1007.2 |
| 20260507122314 | 26 | 10 | 6.4 | 17.7 | 0.00 | 0.00 | 0.00 | 69 | 1007.2 |
| 20260507121747 | 26 | 343 | 4.8 | 17.7 | 0.00 | 0.00 | 0.00 | 69 | 1007.1 |
| 20260507121242 | 26 | 16 | 4.8 | 11.3 | 0.00 | 0.00 | 0.00 | 71 | 1007.1 |
| 20260507120714 | 26 | 301 | 4.8 | 11.3 | 0.00 | 0.00 | 0.00 | 70 | 1007.1 |
| 20260507120220 | 26 | 330 | 4.8 | 9.7 | 0.00 | 0.00 | 0.00 | 71 | 1007.2 |
| 20260507120211 | 26 | 12 | 3.2 | 9.7 | 0.00 | 0.00 | 0.00 | 70 | 1007.1 |
| 20260507115144 | 26 | 321 | 4.8 | 19.3 | 0.00 | 0.00 | 0.00 | 70 | 1007.2 |
| 20260507114844 | 26 | 289 | 4.8 | 11.3 | 0.00 | 0.00 | 0.00 | 70 | 1007.2 |
| 20260507114044 | 26 | 28 | 4.8 | 14.5 | 0.00 | 0.00 | 0.00 | 69 | 1007.2 |
| 20260507113539 | 26 | 29 | 6.4 | 14.5 | 0.00 | 0.00 | 0.00 | 69 | 1007.1 |
| 20260507113030 | 26 | 338 | 6.4 | 14.5 | 0.00 | 0.00 | 0.00 | 69 | 1007.2 |
| 20260507112529 | 26 | 351 | 8.0 | 14.5 | 0.00 | 0.00 | 0.00 | 69 | 1007.1 |
| 20260507112000 | 26 | 14 | 6.4 | 14.5 | 0.00 | 0.00 | 0.00 | 70 | 1006.9 |
| 20260507111432 | 26 | 359 | 6.4 | 16.1 | 0.00 | 0.00 | 0.00 | 70 | 1007.0 |
| 20260507111201 | 26 | 15 | 8.0 | 19.3 | 0.00 | 0.00 | 0.00 | 70 | 1006.7 |
| 20260507110658 | 26 | 64 | 9.7 | 20.9 | 0.00 | 0.00 | 0.00 | 70 | 1006.6 |
| 20260507105926 | 26 | 47 | 9.7 | 20.9 | 0.00 | 0.00 | 0.00 | 70 | 1006.5 |
| 20260507105423 | 26 | 4 | 9.7 | 19.3 | 0.00 | 0.00 | 0.00 | 70 | 1006.4 |
| 20260507104919 | 26 | 2 | 8.0 | 20.9 | 0.00 | 0.00 | 0.00 | 72 | 1006.3 |
| 20260507104851 | 25 | 337 | 8.0 | 20.9 | 0.00 | 0.00 | 0.00 | 72 | 1006.4 |
| 20260507103830 | 25 | 4 | 8.0 | 19.3 | 0.00 | 0.00 | 0.00 | 73 | 1006.2 |
| 20260507103330 | 25 | 35 | 9.7 | 19.3 | 0.00 | 0.00 | 0.00 | 73 | 1006.3 |
| 20260507102831 | 25 | 24 | 9.7 | 17.7 | 0.00 | 0.00 | 0.00 | 73 | 1006.3 |
| 20260507102327 | 25 | 16 | 8.0 | 17.7 | 0.00 | 0.00 | 0.00 | 73 | 1006.4 |
| 20260507101823 | 25 | 349 | 8.0 | 17.7 | 0.00 | 0.00 | 0.00 | 73 | 1006.4 |
| 20260507101323 | 25 | 8 | 8.0 | 16.1 | 0.00 | 0.00 | 0.00 | 73 | 1006.4 |
| 20260507100816 | 25 | 345 | 8.0 | 19.3 | 0.00 | 0.00 | 0.00 | 73 | 1006.4 |
| 20260507100314 | 25 | 332 | 8.0 | 19.3 | 0.00 | 0.00 | 0.00 | 73 | 1006.4 |
| 20260507095813 | 25 | 29 | 8.0 | 14.5 | 0.00 | 0.00 | 0.00 | 73 | 1006.3 |
| 20260507095542 | 25 | 1 | 9.7 | 17.7 | 0.00 | 0.00 | 0.00 | 73 | 1006.3 |
| 20260507094808 | 25 | 295 | 8.0 | 17.7 | 0.00 | 0.00 | 0.00 | 72 | 1006.5 |
| 20260507094246 | 25 | 323 | 8.0 | 19.3 | 0.00 | 0.00 | 0.00 | 72 | 1006.6 |
| 20260507093748 | 25 | 20 | 8.0 | 19.3 | 0.00 | 0.00 | 0.00 | 71 | 1006.5 |
| 20260507093220 | 25 | 330 | 9.7 | 27.4 | 0.00 | 0.00 | 0.00 | 71 | 1006.6 |
| 20260507092718 | 25 | 2 | 11.3 | 27.4 | 0.00 | 0.00 | 0.00 | 71 | 1006.5 |
| 20260507092202 | 25 | 305 | 8.0 | 19.3 | 0.00 | 0.00 | 0.00 | 71 | 1006.7 |
| 20260507091700 | 25 | 278 | 9.7 | 24.1 | 0.00 | 0.00 | 0.00 | 71 | 1006.6 |
| 20260507091132 | 26 | 330 | 9.7 | 24.1 | 0.00 | 0.00 | 0.00 | 71 | 1006.6 |
| 20260507090627 | 26 | 24 | 12.9 | 29.0 | 0.00 | 0.00 | 0.00 | 71 | 1006.5 |
| 20260507090124 | 26 | 6 | 12.9 | 29.0 | 0.00 | 0.00 | 0.00 | 71 | 1006.4 |